Satellite-Ground Cal/Val Site Overpasses Predictions

Prediction of Satellite NPP Overpassing Cal/Val Site: Antarctic Dome C

Ground Cal/Val Site Location: Latitude: -75.10, Longitude: 123.35; Satellite-Ground Site NADIR distance within 100 km.

Table of predicted overpasses for the next 14.0 days since TLE Epoch: 7/15/2012
Interval Starting Time Ending Time Minimum Distance Time Minimum Distance (km)
1 07/16/2012 14:40:30 07/16/2012 14:40:54 07/16/2012 14:40:42 53.28
2 07/17/2012 07:42:11 07/17/2012 07:42:31 07/17/2012 07:42:21 71.45
3 07/18/2012 07:23:18 07/18/2012 07:23:45 07/18/2012 07:23:31 36.57
4 07/20/2012 15:05:44 07/20/2012 15:05:53 07/20/2012 15:05:48 93.73
5 07/21/2012 14:46:45 07/21/2012 14:47:13 07/21/2012 14:46:59 17.44
6 07/23/2012 07:29:34 07/23/2012 07:30:03 07/23/2012 07:29:48 1.67
7 07/26/2012 14:53:00 07/26/2012 14:53:29 07/26/2012 14:53:14 19.16
8 07/27/2012 14:34:19 07/27/2012 14:34:32 07/27/2012 14:34:25 87.88
9 07/28/2012 07:35:51 07/28/2012 07:36:18 07/28/2012 07:36:04 36.55
